FW6667 Weather Reports


time (UTC)temp
C
wind
direction
speed
KPH
gust
KPH
rain 1hr
cm
rain 24hr
cm
rain mn
cm
humidity
%
barometer
mb
20260906023007 18 153 0.0 0.0 0.00 0.00 0.00 69 1005.4
20260906022006 18 153 0.0 0.0 0.00 0.00 0.00 69 1005.4
20260906021006 18 153 0.0 0.0 0.00 0.00 0.00 71 1005.4
20260906020006 18 153 0.0 0.0 0.00 0.00 0.00 71 1005.1
20260906015005 18 153 0.0 0.0 0.00 0.00 0.00 70 1005.2
20260906014006 19 153 0.0 0.0 0.00 0.00 0.00 70 1005.3
20260906013007 19 153 0.0 0.0 0.00 0.00 0.00 70 1005.1
20260906012006 19 153 0.0 0.0 0.00 0.00 0.00 71 1005.1
20260906011007 19 153 0.0 0.0 0.00 0.00 0.00 67 1005.1
20260906010011 18 153 0.0 0.0 0.00 0.00 0.00 70 1004.9
20260906005008 19 153 0.0 0.0 0.00 0.00 0.00 70 1004.8
20260906003012 19 153 0.0 0.0 0.00 0.00 0.00 70 1005.1
20260906001006 19 153 0.0 0.0 0.00 0.00 0.00 70 1005.1
20260906000005 19 153 0.0 0.0 0.00 0.00 0.00 70 1004.7
20260905235006 19 153 0.0 0.0 0.00 0.00 0.00 71 1004.6
20260905234007 20 152 0.0 0.0 0.00 0.00 0.00 70 1004.5
20260905233005 20 152 0.0 0.0 0.00 0.00 0.00 69 1004.7
20260905232005 20 151 0.0 1.6 0.00 0.00 0.00 70 1004.7
20260905230008 20 169 0.0 0.0 0.00 0.00 0.00 68 1004.4
20260905225006 21 170 0.0 1.6 0.00 0.00 0.00 58 1004.2
20260905224006 21 162 0.0 3.2 0.00 0.00 0.00 54 1004.1
20260905223006 21 158 0.0 3.2 0.00 0.00 0.00 52 1004.1
20260905222005 21 165 0.0 1.6 0.00 0.00 0.00 53 1004.1
20260905221005 21 165 0.0 0.0 0.00 0.00 0.00 52 1003.9
20260905220008 21 165 0.0 0.0 0.00 0.00 0.00 51 1003.8
20260905215005 21 165 0.0 1.6 0.00 0.00 0.00 51 1003.7
20260905214006 21 159 0.0 1.6 0.00 0.00 0.00 53 1003.7
20260905213005 21 169 0.0 0.0 0.00 0.00 0.00 52 1003.5
20260905212005 21 170 0.0 1.6 0.00 0.00 0.00 51 1003.2
20260905211006 21 167 0.0 0.0 0.00 0.00 0.00 53 1003.4
20260905210007 21 167 0.0 3.2 0.00 0.00 0.00 53 1003.2
20260905204005 22 171 0.0 1.6 0.00 0.00 0.00 47 1003.0
20260905203005 22 167 0.0 0.0 0.00 0.00 0.00 48 1003.0
20260905202006 22 167 0.0 1.6 0.00 0.00 0.00 46 1003.0
20260905201006 22 166 0.0 0.0 0.00 0.00 0.00 48 1003.0
20260905200005 22 158 0.0 0.0 0.00 0.00 0.00 45 1002.7
20260905195005 23 157 0.0 0.0 0.00 0.00 0.00 44 1002.4
20260905194005 23 162 0.0 8.0 0.00 0.00 0.00 43 1002.4
20260905193007 23 156 1.6 3.2 0.00 0.00 0.00 43 1002.2
20260905192006 23 152 1.6 4.8 0.00 0.00 0.00 43 1002.0
20260905191005 23 80 4.8 9.7 0.00 0.00 0.00 42 1002.0
20260905190006 24 127 3.2 4.8 0.00 0.00 0.00 41 1001.7
20260905185006 24 64 3.2 8.0 0.00 0.00 0.00 40 1001.7
20260905184006 25 81 3.2 11.3 0.00 0.00 0.00 40 1001.7
20260905183006 25 90 4.8 12.9 0.00 0.00 0.00 39 1001.4
20260905182005 25 120 3.2 14.5 0.00 0.00 0.00 38 1001.4
20260905181005 26 39 4.8 14.5 0.00 0.00 0.00 38 1001.0
20260905180006 26 39 6.4 22.5 0.00 0.00 0.00 37 1001.0
20260905175006 26 52 8.0 14.5 0.00 0.00 0.00 38 1000.7
20260905173005 27 61 9.7 20.9 0.00 0.00 0.00 37 1000.3
20260905172005 27 41 9.7 20.9 0.00 0.00 0.00 38 1000.3
20260905171005 27 62 8.0 16.1 0.00 0.00 0.00 37 1000.0
20260905170006 28 74 14.5 24.1 0.00 0.00 0.00 36 999.8
20260905165005 28 49 9.7 20.9 0.00 0.00 0.00 35 999.7
20260905164005 28 43 8.0 14.5 0.00 0.00 0.00 35 999.3
20260905163005 28 63 4.8 27.4 0.00 0.00 0.00 35 999.3
20260905162005 29 28 11.3 22.5 0.00 0.00 0.00 34 999.2
20260905161005 29 32 12.9 24.1 0.00 0.00 0.00 34 999.0
20260905160007 30 38 14.5 24.1 0.00 0.00 0.00 33 999.0
20260905154006 30 58 14.5 24.1 0.00 0.00 0.00 33 998.3
20260905151005 30 83 11.3 20.9 0.00 0.00 0.00 37 998.2
20260905150006 30 54 11.3 19.3 0.00 0.00 0.00 37 998.3
20260905144006 31 27 14.5 25.7 0.00 0.00 0.00 37 997.6
20260905143005 32 49 11.3 27.4 0.00 0.00 0.00 37 997.6
20260905142004 32 85 9.7 16.1 0.00 0.00 0.00 37 997.7
20260905141006 32 45 11.3 25.7 0.00 0.00 0.00 36 997.8
20260905140006 32 18 9.7 25.7 0.00 0.00 0.00 36 997.6
20260905135004 32 43 9.7 25.7 0.00 0.00 0.00 36 997.8
20260905134005 32 12 19.3 32.2 0.00 0.00 0.00 36 997.9
20260905133005 32 33 14.5 24.1 0.00 0.00 0.00 35 997.8
20260905132004 33 43 9.7 24.1 0.00 0.00 0.00 34 997.8
20260905131004 34 45 6.4 20.9 0.00 0.00 0.00 34 997.5
20260905130006 34 280 4.8 14.5 0.00 0.00 0.00 32 997.6
20260905124007 35 339 8.0 14.5 0.00 0.00 0.00 31 997.9
20260905123005 35 128 3.2 14.5 0.00 0.00 0.00 29 997.6
20260905122005 35 180 3.2 12.9 0.00 0.00 0.00 29 997.6
20260905121005 35 125 4.8 9.7 0.00 0.00 0.00 30 997.6
20260905120006 36 120 4.8 9.7 0.00 0.00 0.00 28 998.0
20260905115006 35 51 6.4 16.1 0.00 0.00 0.00 28 998.0
20260905114006 36 207 4.8 9.7 0.00 0.00 0.00 27 998.0
20260905113007 36 197 4.8 9.7 0.00 0.00 0.00 28 998.0
20260905112008 35 154 4.8 8.0 0.00 0.00 0.00 29 998.0
20260905110007 35 232 4.8 9.7 0.00 0.00 0.00 29 998.0
20260905105006 35 149 1.6 12.9 0.00 0.00 0.00 31 998.0
20260905104006 35 69 8.0 12.9 0.00 0.00 0.00 30 998.0
20260905103006 35 137 1.6 12.9 0.00 0.00 0.00 30 998.1
20260905102005 34 181 1.6 9.7 0.00 0.00 0.00 31 998.2
20260905100006 34 14 3.2 8.0 0.00 0.00 0.00 30 998.2
20260905095010 33 133 4.8 11.3 0.00 0.00 0.00 30 998.0
20260905093006 33 319 1.6 4.8 0.00 0.00 0.00 33 998.3
20260905092006 33 163 1.6 8.0 0.00 0.00 0.00 31 998.3
20260905090008 33 165 3.2 11.3 0.00 0.00 0.00 31 998.5
20260905085006 32 181 3.2 8.0 0.00 0.00 0.00 32 998.3
20260905084007 32 168 0.0 4.8 0.00 0.00 0.00 33 998.3
20260905083006 31 198 3.2 4.8 0.00 0.00 0.00 34 998.3
20260905082006 31 168 1.6 8.0 0.00 0.00 0.00 36 998.3
20260905080006 30 204 6.4 9.7 0.00 0.00 0.00 37 998.5
20260905075006 30 204 3.2 4.8 0.00 0.00 0.00 37 998.3
20260905074006 29 166 0.0 3.2 0.00 0.00 0.00 38 998.2
20260905073006 28 160 0.0 4.8 0.00 0.00 0.00 40 998.0
20260905072006 28 170 3.2 4.8 0.00 0.00 0.00 43 998.0
20260905070007 26 175 3.2 8.0 0.00 0.00 0.00 48 998.0
20260905065006 25 168 3.2 8.0 0.00 0.00 0.00 51 998.0
20260905064007 24 167 3.2 4.8 0.00 0.00 0.00 53 997.7
20260905063005 23 174 4.8 4.8 0.00 0.00 0.00 57 998.0
20260905062005 22 164 1.6 3.2 0.00 0.00 0.00 57 997.6
20260905061006 22 167 1.6 3.2 0.00 0.00 0.00 56 997.9
20260905060008 22 159 1.6 1.6 0.00 0.00 0.00 56 997.8
20260905055006 20 158 0.0 0.0 0.00 0.00 0.00 62 997.8
20260905054006 20 149 0.0 0.0 0.00 0.00 0.00 66 998.0
20260905053006 19 153 0.0 0.0 0.00 0.00 0.00 70 997.6
20260905052005 17 153 0.0 0.0 0.00 0.00 0.00 74 997.7
20260905051031 15 152 0.0 0.0 0.00 0.00 0.00 80 997.7
20260905045006 13 152 0.0 0.0 0.00 0.00 0.00 86 997.6
20260905043006 13 152 0.0 0.0 0.00 0.00 0.00 87 997.6
20260905042008 13 152 0.0 0.0 0.00 0.00 0.00 87 997.6
20260905040007 13 152 0.0 0.0 0.00 0.00 0.00 86 997.6
20260905035006 13 152 0.0 0.0 0.00 0.00 0.00 85 997.6
20260905034005 14 152 0.0 0.0 0.00 0.00 0.00 85 997.6
20260905033006 14 152 0.0 0.0 0.00 0.00 0.00 82 997.5
20260905031007 14 152 0.0 0.0 0.00 0.00 0.00 83 997.6
20260905025006 14 158 0.0 3.2 0.00 0.00 0.00 83 997.6
20260905024007 14 155 0.0 0.0 0.00 0.00 0.00 84 997.6